Regional Weather Roundup
Issued by NWS

Home | Current Version | Previous Version | Graphics & Text | Print | Product List | Glossary On
Versions: 1 2 3 4 5 6 7 8 9 10 11 12 13 14 15 16 17 18 19 20 21 22 23 24 25 26 27 28 29 30 31 32 33 34 35 36 37 38 39 40 41 42 43 44 45 46 47 48 49 50
962
ASUS43 KDMX 240101
RWRIA

WEATHER ROUNDUP FOR IOWA
NATIONAL WEATHER SERVICE DES MOINES IA
800 PM CDT SAT SEP 23 2017

NOTE: "FAIR" INDICATES FEW OR NO CLOUDS BELOW 12,000 FEET WITH NO
SIGNIFICANT WEATHER AND/OR OBSTRUCTIONS TO VISIBILITY.

* - THESE STATIONS ARE NOT NWS STATIONS...THUS NOT UNDER NWS
QUALITY CONTROL.  THEY ALSO DO NOT REPORT WEATHER SUCH
AS PRECIPITATION OR FOG.

IAZ001>003-012>014-020>022-031>034-043>046-240200-
   NORTHWEST IOWA

CITY           SKY/WX    TMP DP  RH WIND       PRES   REMARKS
CARROLL *      CLEAR     75  64  69 SE6       29.93S
CHEROKEE *     CLOUDY    78  65  65 SE8       29.89F HX  80
DENISON *      CLEAR     79  63  57 S10       29.93S HX  80
LE MARS *      CLOUDY    79  66  65 SE8       29.87S HX  81
ORANGE CITY *  PTCLDY    81  68  65 CALM      29.89S HX  83
SHELDON *      CLOUDY    79  66  65 SE8       29.88S HX  81
SIOUX CITY     CLOUDY    81  67  62 SE8       29.86S HX  83
SPENCER        MOCLDY    77  65  66 S7        29.91S
STORM LAKE *   PTCLDY    77  64  65 SE9       29.92S
$$

IAZ055>058-069>071-079>083-090>094-240200-
   SOUTHWEST IOWA

CITY           SKY/WX    TMP DP  RH WIND       PRES   REMARKS
ATLANTIC *     CLEAR     81  64  57 SE6       29.93S HX  82
AUDUBON *      CLEAR     75  66  73 CALM      29.96S
CLARINDA *     CLEAR     77  64  65 S5        29.96S
COUNCIL BLFS * CLEAR     81  64  57 SE10      29.91F HX  82
CRESTON *      CLEAR     79  64  61 SE6       29.98S HX  81
HARLAN  *      CLEAR     79  64  61 S7        29.96S HX  81
LAMONI         CLEAR     82  65  56 SE6       29.97R HX  84
RED OAK *      CLEAR     79  64  61 S5        29.93S HX  81
SHENANDOAH *   CLEAR     81  64  57 S9        29.93S HX  82
$$

IAZ047>049-059>061-072>074-084-240200-
   CENTRAL IOWA

CITY           SKY/WX    TMP DP  RH WIND       PRES   REMARKS
AMES           CLEAR     75  66  73 SE5       29.95R
ANKENY *       CLEAR     79  66  65 SE5       29.96S HX  81
BOONE *        CLEAR     79  64  61 SE6       29.96R HX  81
CHARITON *     CLEAR     79  66  65 SE3       29.97S HX  81
DES MOINES     MOCLDY    84  64  50 SE9       29.95R HX  85
GRINNELL*      PTCLDY    78  63  60 CALM      30.00R HX  80
KNOXVILLE *    CLEAR     81  64  57 SE5       29.96S HX  82
MARSHALLTOWN   PTCLDY    80  64  58 SE6       29.97R HX  82
NEWTON *       CLEAR     77  64  65 SE8       29.97S
PELLA *        CLEAR     80  63  57 SE3       29.98S HX  81
PERRY *          N/A     78  62  58 SE7       29.95R
$$

IAZ004>006-015-016-023>025-035-036-240200-
   NORTH CENTRAL IOWA

CITY           SKY/WX    TMP DP  RH WIND       PRES   REMARKS
ALGONA *       PTCLDY    81  64  57 S12       29.94R HX  82
CLARION *      PTCLDY    77  64  65 SE9       29.95S
ESTHERVILLE    PTCLDY    75  65  70 S8        29.91S
FORT DODGE *   CLEAR     83  64  52 S7        29.95R HX  84
MASON CITY     PTCLDY    76  62  62 S8        29.98R
FOREST CITY *    N/A     73  63  68 SE9       29.96R
WEBSTER CITY * CLEAR     79  63  57 SE7       29.93S HX  80
IOWA FALLS *     N/A     79  64  59 S8        29.98R HX  80
$$

IAZ007>011-017>019-026>030-037>042-050>054-066-240200-
   NORTHEAST IOWA

CITY           SKY/WX    TMP DP  RH WIND       PRES   REMARKS
CEDAR RAPIDS   CLEAR     77  63  61 SE3       29.98R
CHARLES CITY * CLEAR     79  63  57 S7        29.98R HX  80
CLINTON *      CLEAR    N/A N/A N/A SE7       30.01S
DECORAH *      MOCLDY    81  64  57 SE7       29.98R HX  82
DUBUQUE        CLEAR     78  64  61 SE7       30.02S HX  80
MONTICELLO *   CLEAR     79  63  57 SE5       29.99S HX  80
OELWEIN *      CLEAR     77  63  61 SE7       30.00R
WATERLOO       CLEAR     80  61  52 SE7       29.96R HX  81
$$

IAZ064-065-067-068-078-240200-
   EAST CENTRAL IOWA

CITY           SKY/WX    TMP DP  RH WIND       PRES   REMARKS
DAVENPORT      CLEAR     76  65  68 SE6       30.02R
IOWA CITY      CLEAR     82  65  56 CALM      29.99S HX  84
MUSCATINE *    CLEAR     81  66  61 SE6       29.98S HX  83
QUAD CITIES    CLEAR     77  67  71 S6        29.99S
$$

IAZ062-063-075>077-085>089-095>099-240200-
   SOUTHEAST IOWA

CITY           SKY/WX    TMP DP  RH WIND       PRES   REMARKS
BURLINGTON     CLEAR     81  65  58 SE6       29.99S HX  83
FAIRFIELD *    CLEAR     77  61  57 SE5       29.98R
FORT MADISON * CLEAR     81  64  57 SE5       30.00S HX  82
KEOKUK *       CLEAR     82  64  54 SE7       29.98S HX  84
OSKALOOSA *      N/A     74  64  72 SE5       29.98R
OTTUMWA        CLEAR     78  64  61 SE6       29.97R HX  80
WASHINGTON *   CLEAR     77  64  65 SE7       29.99R
$$

ABBREVIATIONS USED IN REMARKS
   TC - TEMPERATURES IN CELSIUS
  WCI - WIND CHILL INDEX
   HX - HEAT INDEX
  VSB - VISIBILITY
$$





USA.gov is the U.S. government's official web portal to all federal, state and local government web resources and services.